Year,Month,Day,Hour,Minute,Value (Times are PST for temperature in C)
2012,12,17,00,00,3.40
2012,12,17,00,01,3.40
2012,12,17,00,02,3.40
2012,12,17,00,03,3.40
2012,12,17,00,04,3.30
2012,12,17,00,05,3.30
2012,12,17,00,06,3.30
2012,12,17,00,07,3.30
2012,12,17,00,08,3.30
2012,12,17,00,09,3.20
2012,12,17,00,10,3.20
2012,12,17,00,11,3.20
2012,12,17,00,12,3.30
2012,12,17,00,13,3.30
2012,12,17,00,14,3.30
2012,12,17,00,15,3.20
2012,12,17,00,16,3.20
2012,12,17,00,17,3.20
2012,12,17,00,18,3.20
2012,12,17,00,19,3.10
2012,12,17,00,20,3.10
2012,12,17,00,21,3.10
2012,12,17,00,22,3.10
2012,12,17,00,23,3.10
2012,12,17,00,24,3.10
2012,12,17,00,25,3.10
2012,12,17,00,26,3.10
2012,12,17,00,27,3.10
2012,12,17,00,28,3.10
2012,12,17,00,29,3.20
2012,12,17,00,30,3.20
2012,12,17,00,31,3.20
2012,12,17,00,32,3.20
2012,12,17,00,33,3.20
2012,12,17,00,34,3.20
2012,12,17,00,35,3.20
2012,12,17,00,36,3.20
2012,12,17,00,37,3.20
2012,12,17,00,38,3.20
2012,12,17,00,39,3.20
2012,12,17,00,40,3.20
2012,12,17,00,41,3.30
2012,12,17,00,42,3.30
2012,12,17,00,43,3.30
2012,12,17,00,44,3.30
2012,12,17,00,45,3.30
2012,12,17,00,46,3.30
2012,12,17,00,47,3.30
2012,12,17,00,48,3.30
2012,12,17,00,49,3.30
2012,12,17,00,50,3.40
2012,12,17,00,51,3.30
2012,12,17,00,52,3.30
2012,12,17,00,53,3.30
2012,12,17,00,54,3.40
2012,12,17,00,55,3.40
2012,12,17,00,56,3.40
2012,12,17,00,57,3.50
2012,12,17,00,58,3.50
2012,12,17,00,59,3.60
2012,12,17,01,00,3.60
2012,12,17,01,01,3.60
2012,12,17,01,02,3.60
2012,12,17,01,03,3.60
2012,12,17,01,04,3.60
2012,12,17,01,05,3.60
2012,12,17,01,06,3.60
2012,12,17,01,07,3.60
2012,12,17,01,08,3.60
2012,12,17,01,09,3.60
2012,12,17,01,10,3.60
2012,12,17,01,11,3.60
2012,12,17,01,12,3.60
2012,12,17,01,13,3.60
2012,12,17,01,14,3.70
2012,12,17,01,15,3.70
2012,12,17,01,16,3.60
2012,12,17,01,17,3.60
2012,12,17,01,18,3.60
2012,12,17,01,19,3.60
2012,12,17,01,20,3.60
2012,12,17,01,21,3.60
2012,12,17,01,22,3.60
2012,12,17,01,23,3.60
2012,12,17,01,24,3.60
2012,12,17,01,25,3.60
2012,12,17,01,26,3.60
2012,12,17,01,27,3.60
2012,12,17,01,28,3.60
2012,12,17,01,29,3.60
2012,12,17,01,30,3.60
2012,12,17,01,31,3.60
2012,12,17,01,32,3.60
2012,12,17,01,33,3.60
2012,12,17,01,34,3.60
2012,12,17,01,35,3.60
2012,12,17,01,36,3.60
2012,12,17,01,37,3.60
2012,12,17,01,38,3.60
2012,12,17,01,39,3.60
2012,12,17,01,40,3.60
2012,12,17,01,41,3.60
2012,12,17,01,42,3.60
2012,12,17,01,43,3.60
2012,12,17,01,44,3.60
2012,12,17,01,45,3.60
2012,12,17,01,46,3.60
2012,12,17,01,47,3.60
2012,12,17,01,48,3.60
2012,12,17,01,49,3.60
2012,12,17,01,50,3.60
2012,12,17,01,51,3.60
2012,12,17,01,52,3.60
2012,12,17,01,53,3.60
2012,12,17,01,54,3.60
2012,12,17,01,55,3.60
2012,12,17,01,56,3.60
2012,12,17,01,57,3.60
2012,12,17,01,58,3.60
2012,12,17,01,59,3.60
2012,12,17,02,00,3.60
2012,12,17,02,01,3.60
2012,12,17,02,02,3.60
2012,12,17,02,03,3.60
2012,12,17,02,04,3.60
2012,12,17,02,05,3.60
2012,12,17,02,06,3.60
2012,12,17,02,07,3.60
2012,12,17,02,08,3.60
2012,12,17,02,09,3.60
2012,12,17,02,10,3.60
2012,12,17,02,11,3.60
2012,12,17,02,12,3.60
2012,12,17,02,13,3.60
2012,12,17,02,14,3.60
2012,12,17,02,15,3.60
2012,12,17,02,16,3.60
2012,12,17,02,17,3.60
2012,12,17,02,18,3.60
2012,12,17,02,19,3.60
2012,12,17,02,20,3.60
2012,12,17,02,21,3.60
2012,12,17,02,22,3.60
2012,12,17,02,23,3.60
2012,12,17,02,24,3.60
2012,12,17,02,25,3.70
2012,12,17,02,26,3.70
2012,12,17,02,27,3.80
2012,12,17,02,28,3.80
2012,12,17,02,29,3.80
2012,12,17,02,30,3.80
2012,12,17,02,31,3.80
2012,12,17,02,32,3.80
2012,12,17,02,33,3.80
2012,12,17,02,34,3.80
2012,12,17,02,35,3.80
2012,12,17,02,36,3.80
2012,12,17,02,37,3.80
2012,12,17,02,38,3.80
2012,12,17,02,39,3.80
2012,12,17,02,40,3.80
2012,12,17,02,41,3.80
2012,12,17,02,42,3.80
2012,12,17,02,43,3.80
2012,12,17,02,44,3.80
2012,12,17,02,45,3.80
2012,12,17,02,46,3.80
2012,12,17,02,47,3.80
2012,12,17,02,48,3.80
2012,12,17,02,49,3.80
2012,12,17,02,50,3.80
2012,12,17,02,51,3.80
2012,12,17,02,52,3.80
2012,12,17,02,53,3.80
2012,12,17,02,54,3.80
2012,12,17,02,55,3.80
2012,12,17,02,56,3.80
2012,12,17,02,57,3.80
2012,12,17,02,58,3.80
2012,12,17,02,59,3.90
2012,12,17,03,00,3.90
2012,12,17,03,01,3.90
2012,12,17,03,02,3.90
2012,12,17,03,03,3.90
2012,12,17,03,04,3.90
2012,12,17,03,05,3.90
2012,12,17,03,06,3.90
2012,12,17,03,07,3.90
2012,12,17,03,08,3.90
2012,12,17,03,09,3.90
2012,12,17,03,10,3.90
2012,12,17,03,11,3.90
2012,12,17,03,12,3.90
2012,12,17,03,13,3.90
2012,12,17,03,14,3.90
2012,12,17,03,15,3.90
2012,12,17,03,16,4.00
2012,12,17,03,17,4.00
2012,12,17,03,18,4.00
2012,12,17,03,19,4.00
2012,12,17,03,20,4.10
2012,12,17,03,21,4.10
2012,12,17,03,22,4.10
2012,12,17,03,23,4.10
2012,12,17,03,24,4.10
2012,12,17,03,25,4.10
2012,12,17,03,26,4.10
2012,12,17,03,27,4.10
2012,12,17,03,28,4.10
2012,12,17,03,29,4.10
2012,12,17,03,30,4.10
2012,12,17,03,31,4.10
2012,12,17,03,32,4.10
2012,12,17,03,33,4.10
2012,12,17,03,34,4.10
2012,12,17,03,35,4.10
2012,12,17,03,36,4.10
2012,12,17,03,37,4.10
2012,12,17,03,38,4.10
2012,12,17,03,39,4.10
2012,12,17,03,40,4.10
2012,12,17,03,41,4.10
2012,12,17,03,42,4.10
2012,12,17,03,43,4.10
2012,12,17,03,44,4.10
2012,12,17,03,45,4.10
2012,12,17,03,46,4.10
2012,12,17,03,47,4.10
2012,12,17,03,48,4.10
2012,12,17,03,49,4.10
2012,12,17,03,50,4.10
2012,12,17,03,51,4.10
2012,12,17,03,52,4.20
2012,12,17,03,53,4.20
2012,12,17,03,54,4.20
2012,12,17,03,55,4.20
2012,12,17,03,56,4.30
2012,12,17,03,57,4.30
2012,12,17,03,58,4.30
2012,12,17,03,59,4.30
2012,12,17,04,00,4.30
2012,12,17,04,01,4.40
2012,12,17,04,02,4.40
2012,12,17,04,03,4.40
2012,12,17,04,04,4.40
2012,12,17,04,05,4.40
2012,12,17,04,06,4.40
2012,12,17,04,07,4.30
2012,12,17,04,08,4.30
2012,12,17,04,09,4.30
2012,12,17,04,10,4.30
2012,12,17,04,11,4.30
2012,12,17,04,12,4.30
2012,12,17,04,13,4.20
2012,12,17,04,14,4.20
2012,12,17,04,15,4.30
2012,12,17,04,16,4.30
2012,12,17,04,17,4.30
2012,12,17,04,18,4.30
2012,12,17,04,19,4.30
2012,12,17,04,20,4.30
2012,12,17,04,21,4.40
2012,12,17,04,22,4.40
2012,12,17,04,23,4.40
2012,12,17,04,24,4.50
2012,12,17,04,25,4.50
2012,12,17,04,26,4.50
2012,12,17,04,27,4.50
2012,12,17,04,28,4.50
2012,12,17,04,29,4.50
2012,12,17,04,30,4.50
2012,12,17,04,31,4.60
2012,12,17,04,32,4.60
2012,12,17,04,33,4.60
2012,12,17,04,34,4.60
2012,12,17,04,35,4.60
2012,12,17,04,36,4.60
2012,12,17,04,37,4.60
2012,12,17,04,38,4.60
2012,12,17,04,39,4.60
2012,12,17,04,40,4.60
2012,12,17,04,41,4.60
2012,12,17,04,42,4.70
2012,12,17,04,43,4.70
2012,12,17,04,44,4.70
2012,12,17,04,45,4.70
2012,12,17,04,46,4.70
2012,12,17,04,47,4.70
2012,12,17,04,48,4.70
2012,12,17,04,49,4.70
2012,12,17,04,50,4.70
2012,12,17,04,51,4.70
2012,12,17,04,52,4.70
2012,12,17,04,53,4.60
2012,12,17,04,54,4.60
2012,12,17,04,55,4.60
2012,12,17,04,56,4.60
2012,12,17,04,57,4.70
2012,12,17,04,58,4.70
2012,12,17,04,59,4.70
2012,12,17,05,00,4.70
2012,12,17,05,01,4.70
2012,12,17,05,02,4.70
2012,12,17,05,03,4.70
2012,12,17,05,04,4.70
2012,12,17,05,05,4.70
2012,12,17,05,06,4.70
2012,12,17,05,07,4.70
2012,12,17,05,08,4.70
2012,12,17,05,09,4.70
2012,12,17,05,10,4.70
2012,12,17,05,11,4.70
2012,12,17,05,12,4.80
2012,12,17,05,13,4.80
2012,12,17,05,14,4.80
2012,12,17,05,15,4.90
2012,12,17,05,16,4.90
2012,12,17,05,17,4.90
2012,12,17,05,18,4.90
2012,12,17,05,19,4.90
2012,12,17,05,20,4.90
2012,12,17,05,21,4.90
2012,12,17,05,22,4.90
2012,12,17,05,23,4.90
2012,12,17,05,24,4.90
2012,12,17,05,25,4.90
2012,12,17,05,26,4.90
2012,12,17,05,27,4.90
2012,12,17,05,28,4.90
2012,12,17,05,29,4.90
2012,12,17,05,30,4.90
2012,12,17,05,31,4.90
2012,12,17,05,32,4.90
2012,12,17,05,33,4.90
2012,12,17,05,34,4.90
2012,12,17,05,35,4.90
2012,12,17,05,36,4.90
2012,12,17,05,37,4.90
2012,12,17,05,38,5.00
2012,12,17,05,39,5.00
2012,12,17,05,40,5.00
2012,12,17,05,41,5.00
2012,12,17,05,42,5.10
2012,12,17,05,43,5.10
2012,12,17,05,44,5.10
2012,12,17,05,45,5.10
2012,12,17,05,46,5.10
2012,12,17,05,47,5.10
2012,12,17,05,48,5.20
2012,12,17,05,49,5.20
2012,12,17,05,50,5.20
2012,12,17,05,51,5.20
2012,12,17,05,52,5.20
2012,12,17,05,53,5.20
2012,12,17,05,54,5.20
2012,12,17,05,55,5.20
2012,12,17,05,56,5.20
2012,12,17,05,57,5.10
2012,12,17,05,58,5.10
2012,12,17,05,59,5.10
2012,12,17,06,00,5.00
2012,12,17,06,01,5.00
2012,12,17,06,02,4.90
2012,12,17,06,03,4.90
2012,12,17,06,04,4.80
2012,12,17,06,05,4.80
2012,12,17,06,06,4.80
2012,12,17,06,07,4.80
2012,12,17,06,08,4.80
2012,12,17,06,09,4.80
2012,12,17,06,10,4.80
2012,12,17,06,11,4.80
2012,12,17,06,12,4.80
2012,12,17,06,13,4.80
2012,12,17,06,14,4.80
2012,12,17,06,15,4.80
2012,12,17,06,16,4.80
2012,12,17,06,17,4.80
2012,12,17,06,18,4.90
2012,12,17,06,19,4.90
2012,12,17,06,20,4.90
2012,12,17,06,21,5.00
2012,12,17,06,22,5.00
2012,12,17,06,23,5.10
2012,12,17,06,24,5.10
2012,12,17,06,25,5.20
2012,12,17,06,26,5.20
2012,12,17,06,27,5.20
2012,12,17,06,28,5.20
2012,12,17,06,29,5.20
2012,12,17,06,30,5.30
2012,12,17,06,31,5.30
2012,12,17,06,32,5.30
2012,12,17,06,33,5.30
2012,12,17,06,34,5.40
2012,12,17,06,35,5.40
2012,12,17,06,36,5.40
2012,12,17,06,37,5.50
2012,12,17,06,38,5.50
2012,12,17,06,39,5.50
2012,12,17,06,40,5.50
2012,12,17,06,41,5.60
2012,12,17,06,42,5.60
2012,12,17,06,43,5.60
2012,12,17,06,44,5.60
2012,12,17,06,45,5.70
2012,12,17,06,46,5.70
2012,12,17,06,47,5.70
2012,12,17,06,48,5.70
2012,12,17,06,49,5.70
2012,12,17,06,50,5.70
2012,12,17,06,51,5.70
2012,12,17,06,52,5.70
2012,12,17,06,53,5.70
2012,12,17,06,54,5.70
2012,12,17,06,55,5.70
2012,12,17,06,56,5.70
2012,12,17,06,57,5.80
2012,12,17,06,58,5.80
2012,12,17,06,59,5.80
2012,12,17,07,00,5.80
2012,12,17,07,01,5.80
2012,12,17,07,02,5.80
2012,12,17,07,03,5.80
2012,12,17,07,04,5.80
2012,12,17,07,05,5.80
2012,12,17,07,06,5.90
2012,12,17,07,07,5.90
2012,12,17,07,08,5.90
2012,12,17,07,09,5.90
2012,12,17,07,10,5.90
2012,12,17,07,11,5.90
2012,12,17,07,12,5.90
2012,12,17,07,13,5.90
2012,12,17,07,14,5.90
2012,12,17,07,15,5.90
2012,12,17,07,16,5.90
2012,12,17,07,17,5.90
2012,12,17,07,18,5.90
2012,12,17,07,19,5.90
2012,12,17,07,20,5.90
2012,12,17,07,21,5.90
2012,12,17,07,22,5.80
2012,12,17,07,23,5.80
2012,12,17,07,24,5.80
2012,12,17,07,25,5.80
2012,12,17,07,26,5.80
2012,12,17,07,27,5.80
2012,12,17,07,28,5.80
2012,12,17,07,29,5.80
2012,12,17,07,30,5.80
2012,12,17,07,31,5.80
2012,12,17,07,32,5.70
2012,12,17,07,33,5.70
2012,12,17,07,34,5.70
2012,12,17,07,35,5.80
2012,12,17,07,36,5.80
2012,12,17,07,37,5.80
2012,12,17,07,38,5.70
2012,12,17,07,39,5.50
2012,12,17,07,40,5.30
2012,12,17,07,41,5.10
2012,12,17,07,42,5.00
2012,12,17,07,43,4.80
2012,12,17,07,44,4.80
2012,12,17,07,45,4.70
2012,12,17,07,46,4.70
2012,12,17,07,47,4.70
2012,12,17,07,48,4.70
2012,12,17,07,49,4.70
2012,12,17,07,50,4.70
2012,12,17,07,51,4.70
2012,12,17,07,52,4.70
2012,12,17,07,53,4.70
2012,12,17,07,54,4.60
2012,12,17,07,55,4.50
2012,12,17,07,56,4.40
2012,12,17,07,57,4.40
2012,12,17,07,58,4.30
2012,12,17,07,59,4.20
2012,12,17,08,00,4.20
2012,12,17,08,01,4.20
2012,12,17,08,02,4.20
2012,12,17,08,03,4.20
2012,12,17,08,04,4.20
2012,12,17,08,05,4.20
2012,12,17,08,06,4.20
2012,12,17,08,07,4.20
2012,12,17,08,08,4.20
2012,12,17,08,09,4.20
2012,12,17,08,10,4.30
2012,12,17,08,11,4.30
2012,12,17,08,12,4.30
2012,12,17,08,13,4.30
2012,12,17,08,14,4.30
2012,12,17,08,15,4.30
2012,12,17,08,16,4.40
2012,12,17,08,17,4.40
2012,12,17,08,18,4.40
2012,12,17,08,19,4.40
2012,12,17,08,20,4.40
2012,12,17,08,21,4.40
2012,12,17,08,22,4.40
2012,12,17,08,23,4.40
2012,12,17,08,24,4.40
2012,12,17,08,25,4.40
2012,12,17,08,26,4.40
2012,12,17,08,27,4.40
2012,12,17,08,28,4.30
2012,12,17,08,29,4.30
2012,12,17,08,30,4.30
2012,12,17,08,31,4.30
2012,12,17,08,32,4.30
2012,12,17,08,33,4.30
2012,12,17,08,34,4.30
2012,12,17,08,35,4.30
2012,12,17,08,36,4.30
2012,12,17,08,37,4.30
2012,12,17,08,38,4.30
2012,12,17,08,39,4.40
2012,12,17,08,40,4.40
2012,12,17,08,41,4.40
2012,12,17,08,42,4.50
2012,12,17,08,43,4.50
2012,12,17,08,44,4.60
2012,12,17,08,45,4.70
2012,12,17,08,46,4.70
2012,12,17,08,47,4.70
2012,12,17,08,48,4.70
2012,12,17,08,49,4.70
2012,12,17,08,50,4.70
2012,12,17,08,51,4.70
2012,12,17,08,52,4.70
2012,12,17,08,53,4.70
2012,12,17,08,54,4.70
2012,12,17,08,55,4.70
2012,12,17,08,56,4.70
2012,12,17,08,57,4.60
2012,12,17,08,58,4.60
2012,12,17,08,59,4.50
2012,12,17,09,00,4.40
2012,12,17,09,01,4.40
2012,12,17,09,02,4.40
2012,12,17,09,03,4.40
2012,12,17,09,04,4.40
2012,12,17,09,05,4.40
2012,12,17,09,06,4.50
2012,12,17,09,07,4.50
2012,12,17,09,08,4.60
2012,12,17,09,09,4.60
2012,12,17,09,10,4.60
2012,12,17,09,11,4.60
2012,12,17,09,12,4.60
2012,12,17,09,13,4.60
2012,12,17,09,14,4.60
2012,12,17,09,15,4.60
2012,12,17,09,16,4.60
2012,12,17,09,17,4.60
2012,12,17,09,18,4.60
2012,12,17,09,19,4.60
2012,12,17,09,20,4.60
2012,12,17,09,21,4.60
2012,12,17,09,22,4.60
2012,12,17,09,23,4.60
2012,12,17,09,24,4.60
2012,12,17,09,25,4.60
2012,12,17,09,26,4.60
2012,12,17,09,27,4.60
2012,12,17,09,28,4.70
2012,12,17,09,29,4.70
2012,12,17,09,30,4.70
2012,12,17,09,31,4.70
2012,12,17,09,32,4.70
2012,12,17,09,33,4.70
2012,12,17,09,34,4.70
2012,12,17,09,35,4.70
2012,12,17,09,36,4.80
2012,12,17,09,37,4.80
2012,12,17,09,38,4.80
2012,12,17,09,39,4.80
2012,12,17,09,40,4.80
2012,12,17,09,41,4.80
2012,12,17,09,42,4.80
2012,12,17,09,43,4.80
2012,12,17,09,44,4.80
2012,12,17,09,45,4.80
2012,12,17,09,46,4.70
2012,12,17,09,47,4.60
2012,12,17,09,48,4.50
2012,12,17,09,49,4.40
2012,12,17,09,50,4.30
2012,12,17,09,51,4.20
2012,12,17,09,52,4.20
2012,12,17,09,53,4.10
2012,12,17,09,54,4.00
2012,12,17,09,55,3.90
2012,12,17,09,56,3.80
2012,12,17,09,57,3.70
2012,12,17,09,58,3.70
2012,12,17,09,59,3.60
2012,12,17,10,00,3.50
2012,12,17,10,01,3.40
2012,12,17,10,02,3.30
2012,12,17,10,03,3.30
2012,12,17,10,04,3.30
2012,12,17,10,05,3.30
2012,12,17,10,06,3.30
2012,12,17,10,07,3.30
2012,12,17,10,08,3.20
2012,12,17,10,09,3.20
2012,12,17,10,10,3.10
2012,12,17,10,11,3.00
2012,12,17,10,12,3.00
2012,12,17,10,13,2.90
2012,12,17,10,14,2.90
2012,12,17,10,15,2.80
2012,12,17,10,16,2.80
2012,12,17,10,17,2.80
2012,12,17,10,18,2.70
2012,12,17,10,19,2.70
2012,12,17,10,20,2.70
2012,12,17,10,21,2.60
2012,12,17,10,22,2.60
2012,12,17,10,23,2.60
2012,12,17,10,24,2.50
2012,12,17,10,25,2.50
2012,12,17,10,26,2.50
2012,12,17,10,27,2.50
2012,12,17,10,28,2.50
2012,12,17,10,29,2.50
2012,12,17,10,30,2.60
2012,12,17,10,31,2.60
2012,12,17,10,32,2.60
2012,12,17,10,33,2.60
2012,12,17,10,34,2.70
2012,12,17,10,35,2.70
2012,12,17,10,36,2.70
2012,12,17,10,37,2.70
2012,12,17,10,38,2.70
2012,12,17,10,39,2.70
2012,12,17,10,40,2.80
2012,12,17,10,41,2.80
2012,12,17,10,42,2.80
2012,12,17,10,43,2.80
2012,12,17,10,44,2.90
2012,12,17,10,45,2.90
2012,12,17,10,46,2.90
2012,12,17,10,47,3.00
2012,12,17,10,48,3.00
2012,12,17,10,49,3.00
2012,12,17,10,50,3.10
2012,12,17,10,51,3.10
2012,12,17,10,52,3.20
2012,12,17,10,53,3.20
2012,12,17,10,54,3.20
2012,12,17,10,55,3.30
2012,12,17,10,56,3.30
2012,12,17,10,57,3.30
2012,12,17,10,58,3.30
2012,12,17,10,59,3.30
2012,12,17,11,00,3.30
2012,12,17,11,01,3.20
2012,12,17,11,02,3.20
2012,12,17,11,03,3.20
2012,12,17,11,04,3.20
2012,12,17,11,05,3.20
2012,12,17,11,06,3.20
2012,12,17,11,07,3.20
2012,12,17,11,08,3.20
2012,12,17,11,09,3.20
2012,12,17,11,10,3.20
2012,12,17,11,11,3.20
2012,12,17,11,12,3.20
2012,12,17,11,13,3.30
2012,12,17,11,14,3.30
2012,12,17,11,15,3.30
2012,12,17,11,16,3.30
2012,12,17,11,17,3.40
2012,12,17,11,18,3.40
2012,12,17,11,19,3.50
2012,12,17,11,20,3.50
2012,12,17,11,21,3.60
2012,12,17,11,22,3.60
2012,12,17,11,23,3.60
2012,12,17,11,24,3.70
2012,12,17,11,25,3.70
2012,12,17,11,26,3.70
2012,12,17,11,27,3.80
2012,12,17,11,28,3.80
2012,12,17,11,29,3.80
2012,12,17,11,30,3.80
2012,12,17,11,31,3.80
2012,12,17,11,32,3.90
2012,12,17,11,33,3.90
2012,12,17,11,34,3.90
2012,12,17,11,35,3.90
2012,12,17,11,36,4.00
2012,12,17,11,37,4.00
2012,12,17,11,38,4.00
2012,12,17,11,39,4.10
2012,12,17,11,40,4.10
2012,12,17,11,41,4.20
2012,12,17,11,42,4.20
2012,12,17,11,43,4.30
2012,12,17,11,44,4.30
2012,12,17,11,45,4.30
2012,12,17,11,46,4.30
2012,12,17,11,47,4.30
2012,12,17,11,48,4.30
2012,12,17,11,49,4.30
2012,12,17,11,50,4.30
2012,12,17,11,51,4.30
2012,12,17,11,52,4.30
2012,12,17,11,53,4.20
2012,12,17,11,54,4.20
2012,12,17,11,55,4.20
2012,12,17,11,56,4.20
2012,12,17,11,57,4.20
2012,12,17,11,58,4.20
2012,12,17,11,59,4.20
2012,12,17,12,00,4.20
2012,12,17,12,01,4.20
2012,12,17,12,02,4.20
2012,12,17,12,03,4.20
2012,12,17,12,04,4.20
2012,12,17,12,05,4.20
2012,12,17,12,06,4.20
2012,12,17,12,07,4.20
2012,12,17,12,08,4.30
2012,12,17,12,09,4.30
2012,12,17,12,10,4.30
2012,12,17,12,11,4.40
2012,12,17,12,12,4.40
2012,12,17,12,13,4.50
2012,12,17,12,14,4.60
2012,12,17,12,15,4.60
2012,12,17,12,16,4.60
2012,12,17,12,17,4.60
2012,12,17,12,18,4.60
2012,12,17,12,19,4.60
2012,12,17,12,20,4.60
2012,12,17,12,21,4.70
2012,12,17,12,22,4.70
2012,12,17,12,23,4.70
2012,12,17,12,24,4.70
2012,12,17,12,25,4.70
2012,12,17,12,26,4.70
2012,12,17,12,27,4.70
2012,12,17,12,28,4.70
2012,12,17,12,29,4.70
2012,12,17,12,30,4.70
2012,12,17,12,31,4.70
2012,12,17,12,32,4.70
2012,12,17,12,33,4.70
2012,12,17,12,34,4.70
2012,12,17,12,35,4.70
2012,12,17,12,36,4.70
2012,12,17,12,37,4.70
2012,12,17,12,38,4.70
2012,12,17,12,39,4.70
2012,12,17,12,40,4.70
2012,12,17,12,41,4.70
2012,12,17,12,42,4.70
2012,12,17,12,43,4.70
2012,12,17,12,44,4.70
2012,12,17,12,45,4.70
2012,12,17,12,46,4.70
2012,12,17,12,47,4.70
2012,12,17,12,48,4.80
2012,12,17,12,49,4.80
2012,12,17,12,50,4.80
2012,12,17,12,51,4.80
2012,12,17,12,52,4.80
2012,12,17,12,53,4.80
2012,12,17,12,54,4.80
2012,12,17,12,55,4.80
2012,12,17,12,56,4.80
2012,12,17,12,57,4.70
2012,12,17,12,58,4.70
2012,12,17,12,59,4.70
2012,12,17,13,00,4.70
2012,12,17,13,01,4.70
2012,12,17,13,02,4.60
2012,12,17,13,03,4.60
2012,12,17,13,04,4.60
2012,12,17,13,05,4.50
2012,12,17,13,06,4.50
2012,12,17,13,07,4.40
2012,12,17,13,08,4.40
2012,12,17,13,09,4.40
2012,12,17,13,10,4.40
2012,12,17,13,11,4.40
2012,12,17,13,12,4.40
2012,12,17,13,13,4.40
2012,12,17,13,14,4.30
2012,12,17,13,15,4.30
2012,12,17,13,16,4.30
2012,12,17,13,17,4.30
2012,12,17,13,18,4.30
2012,12,17,13,19,4.30
2012,12,17,13,20,4.30
2012,12,17,13,21,4.30
2012,12,17,13,22,4.30
2012,12,17,13,23,4.30
2012,12,17,13,24,4.30
2012,12,17,13,25,4.30
2012,12,17,13,26,4.30
2012,12,17,13,27,4.20
2012,12,17,13,28,4.20
2012,12,17,13,29,4.20
2012,12,17,13,30,4.20
2012,12,17,13,31,4.20
2012,12,17,13,32,4.30
2012,12,17,13,33,4.30
2012,12,17,13,34,4.30
2012,12,17,13,35,4.30
2012,12,17,13,36,4.30
2012,12,17,13,37,4.30
2012,12,17,13,38,4.30
2012,12,17,13,39,4.30
2012,12,17,13,40,4.30
2012,12,17,13,41,4.30
2012,12,17,13,42,4.30
2012,12,17,13,43,4.30
2012,12,17,13,44,4.20
2012,12,17,13,45,4.10
2012,12,17,13,46,4.00
2012,12,17,13,47,3.90
2012,12,17,13,48,3.90
2012,12,17,13,49,3.90
2012,12,17,13,50,3.90
2012,12,17,13,51,4.00
2012,12,17,13,52,4.00
2012,12,17,13,53,4.10
2012,12,17,13,54,4.10
2012,12,17,13,55,4.20
2012,12,17,13,56,4.20
2012,12,17,13,57,4.20
2012,12,17,13,58,4.20
2012,12,17,13,59,4.20
2012,12,17,14,00,4.20
2012,12,17,14,01,4.20
2012,12,17,14,02,4.20
2012,12,17,14,03,4.20
2012,12,17,14,04,4.20
2012,12,17,14,05,4.20
2012,12,17,14,06,4.20
2012,12,17,14,07,4.20
2012,12,17,14,08,4.20
2012,12,17,14,09,4.20
2012,12,17,14,10,4.20
2012,12,17,14,11,4.20
2012,12,17,14,12,4.30
2012,12,17,14,13,4.30
2012,12,17,14,14,4.30
2012,12,17,14,15,4.30
2012,12,17,14,16,4.30
2012,12,17,14,17,4.30
2012,12,17,14,18,4.20
2012,12,17,14,19,4.20
2012,12,17,14,20,4.10
2012,12,17,14,21,4.10
2012,12,17,14,22,4.00
2012,12,17,14,23,4.00
2012,12,17,14,24,3.90
2012,12,17,14,25,3.90
2012,12,17,14,26,3.90
2012,12,17,14,27,3.80
2012,12,17,14,28,3.80
2012,12,17,14,29,3.80
2012,12,17,14,30,3.70
2012,12,17,14,31,3.70
2012,12,17,14,32,3.70
2012,12,17,14,33,3.70
2012,12,17,14,34,3.70
2012,12,17,14,35,3.60
2012,12,17,14,36,3.60
2012,12,17,14,37,3.60
2012,12,17,14,38,3.60
2012,12,17,14,39,3.60
2012,12,17,14,40,3.60
2012,12,17,14,41,3.60
2012,12,17,14,42,3.60
2012,12,17,14,43,3.60
2012,12,17,14,44,3.60
2012,12,17,14,45,3.70
2012,12,17,14,46,3.70
2012,12,17,14,47,3.70
2012,12,17,14,48,3.70
2012,12,17,14,49,3.70
2012,12,17,14,50,3.70
2012,12,17,14,51,3.70
2012,12,17,14,52,3.70
2012,12,17,14,53,3.70
2012,12,17,14,54,3.70
2012,12,17,14,55,3.70
2012,12,17,14,56,3.70
2012,12,17,14,57,3.60
2012,12,17,14,58,3.60
2012,12,17,14,59,3.50
2012,12,17,15,00,3.40
2012,12,17,15,01,3.40
2012,12,17,15,02,3.30
2012,12,17,15,03,3.30
2012,12,17,15,04,3.30
2012,12,17,15,05,3.20
2012,12,17,15,06,3.20
2012,12,17,15,07,3.20
2012,12,17,15,08,3.20
2012,12,17,15,09,3.20
2012,12,17,15,10,3.20
2012,12,17,15,11,3.20
2012,12,17,15,12,3.30
2012,12,17,15,13,3.30
2012,12,17,15,14,3.30
2012,12,17,15,15,3.40
2012,12,17,15,16,3.40
2012,12,17,15,17,3.50
2012,12,17,15,18,3.50
2012,12,17,15,19,3.60
2012,12,17,15,20,3.60
2012,12,17,15,21,3.60
2012,12,17,15,22,3.60
2012,12,17,15,23,3.60
2012,12,17,15,24,3.60
2012,12,17,15,25,3.60
2012,12,17,15,26,3.60
2012,12,17,15,27,3.60
2012,12,17,15,28,3.60
2012,12,17,15,29,3.60
2012,12,17,15,30,3.60
2012,12,17,15,31,3.60
2012,12,17,15,32,3.60
2012,12,17,15,33,3.60
2012,12,17,15,34,3.60
2012,12,17,15,35,3.50
2012,12,17,15,36,3.60
2012,12,17,15,37,3.60
2012,12,17,15,38,3.50
2012,12,17,15,39,3.50
2012,12,17,15,40,3.50
2012,12,17,15,41,3.50
2012,12,17,15,42,3.50
2012,12,17,15,43,3.50
2012,12,17,15,44,3.60
2012,12,17,15,45,3.50
2012,12,17,15,46,3.50
2012,12,17,15,47,3.50
2012,12,17,15,48,3.40
2012,12,17,15,49,3.40
2012,12,17,15,50,3.40
2012,12,17,15,51,3.40
2012,12,17,15,52,3.40
2012,12,17,15,53,3.40
2012,12,17,15,54,3.30
2012,12,17,15,55,3.30
2012,12,17,15,56,3.30
2012,12,17,15,57,3.30
2012,12,17,15,58,3.30
2012,12,17,15,59,3.20
2012,12,17,16,00,3.20
2012,12,17,16,01,3.20
2012,12,17,16,02,3.20
2012,12,17,16,03,3.20
2012,12,17,16,04,3.20
2012,12,17,16,05,3.20
2012,12,17,16,06,3.20
2012,12,17,16,07,3.20
2012,12,17,16,08,3.10
2012,12,17,16,09,3.10
2012,12,17,16,10,3.10
2012,12,17,16,11,3.00
2012,12,17,16,12,2.90
2012,12,17,16,13,2.90
2012,12,17,16,14,2.90
2012,12,17,16,15,2.90
2012,12,17,16,16,2.90
2012,12,17,16,17,2.80
2012,12,17,16,18,2.80
2012,12,17,16,19,2.80
2012,12,17,16,20,2.80
2012,12,17,16,21,2.70
2012,12,17,16,22,2.70
2012,12,17,16,23,2.70
2012,12,17,16,24,2.60
2012,12,17,16,25,2.60
2012,12,17,16,26,2.60
2012,12,17,16,27,2.60
2012,12,17,16,28,2.60
2012,12,17,16,29,2.60
2012,12,17,16,30,2.50
2012,12,17,16,31,2.50
2012,12,17,16,32,2.50
2012,12,17,16,33,2.50
2012,12,17,16,34,2.40
2012,12,17,16,35,2.40
2012,12,17,16,36,2.40
2012,12,17,16,37,2.40
2012,12,17,16,38,2.40
2012,12,17,16,39,2.40
2012,12,17,16,40,2.40
2012,12,17,16,41,2.40
2012,12,17,16,42,2.40
2012,12,17,16,43,2.40
2012,12,17,16,44,2.40
2012,12,17,16,45,2.40
2012,12,17,16,46,2.40
2012,12,17,16,47,2.40
2012,12,17,16,48,2.40
2012,12,17,16,49,2.40
2012,12,17,16,50,2.40
2012,12,17,16,51,2.40
2012,12,17,16,52,2.40
2012,12,17,16,53,2.40
2012,12,17,16,54,2.40
2012,12,17,16,55,2.40
2012,12,17,16,56,2.40
2012,12,17,16,57,2.40
2012,12,17,16,58,2.40
2012,12,17,16,59,2.40
2012,12,17,17,00,2.40
2012,12,17,17,01,2.40
2012,12,17,17,02,2.40
2012,12,17,17,03,2.40
2012,12,17,17,04,2.40
2012,12,17,17,05,2.40
2012,12,17,17,06,2.40
2012,12,17,17,07,2.30
2012,12,17,17,08,2.30
2012,12,17,17,09,2.30
2012,12,17,17,10,2.30
2012,12,17,17,11,2.30
2012,12,17,17,12,2.30
2012,12,17,17,13,2.30
2012,12,17,17,14,2.30
2012,12,17,17,15,2.30
2012,12,17,17,16,2.30
2012,12,17,17,17,2.30
2012,12,17,17,18,2.30
2012,12,17,17,19,2.30
2012,12,17,17,20,2.30
2012,12,17,17,21,2.30
2012,12,17,17,22,2.30
2012,12,17,17,23,2.30
2012,12,17,17,24,2.30
2012,12,17,17,25,2.30
2012,12,17,17,26,2.30
2012,12,17,17,27,2.30
2012,12,17,17,28,2.20
2012,12,17,17,29,2.20
2012,12,17,17,30,2.10
2012,12,17,17,31,2.10
2012,12,17,17,32,2.10
2012,12,17,17,33,2.00
2012,12,17,17,34,2.00
2012,12,17,17,35,2.10
2012,12,17,17,36,2.10
2012,12,17,17,37,2.10
2012,12,17,17,38,2.20
2012,12,17,17,39,2.20
2012,12,17,17,40,2.30
2012,12,17,17,41,2.30
2012,12,17,17,42,2.30
2012,12,17,17,43,2.30
2012,12,17,17,44,2.30
2012,12,17,17,45,2.30
2012,12,17,17,46,2.30
2012,12,17,17,47,2.30
2012,12,17,17,48,2.30
2012,12,17,17,49,2.30
2012,12,17,17,50,2.20
2012,12,17,17,51,2.20
2012,12,17,17,52,2.20
2012,12,17,17,53,2.10
2012,12,17,17,54,2.10
2012,12,17,17,55,2.00
2012,12,17,17,56,1.90
2012,12,17,17,57,1.90
2012,12,17,17,58,1.80
2012,12,17,17,59,1.80
2012,12,17,18,00,1.70
2012,12,17,18,01,1.70
2012,12,17,18,02,1.60
2012,12,17,18,03,1.60
2012,12,17,18,04,1.50
2012,12,17,18,05,1.50
2012,12,17,18,06,1.50